Location: Corte Bragagnani
(45.3000°N, 11.1000°E)
Time: 01:15:13
(UTC+00:00)

Cosmos 676 Rocket - Pass Details

Date: 09 April 2020
Orbit: 755 x 783 km, 74.0° (Epoch: 30 May)

Event Time Altitude Azimuth Distance (km) Brightness Sun altitude
Rises 19:05:49 0° 188° (S) 3,242 7.1 -12.7°
Reaches altitude 10° 19:08:13 10° 185° (S) 2,315 6.3 -13.1°
Maximum altitude 19:13:22 60° 106° (ESE) 884 4.0 -13.9°
Drops below altitude 10° 19:18:32 10° 28° (NNE) 2,313 6.5 -14.7°
Sets 19:20:56 0° 25° (NNE) 3,239 7.3 -15.1°
